Regional Weather Roundup
Issued by NWS

Home | Current Version | Previous Version | Graphics & Text | Print | Product List | Glossary On
Versions: 1 2 3 4 5 6 7 8 9 10 11 12 13 14 15 16 17 18 19 20 21 22 23 24 25 26 27 28 29 30 31 32 33 34 35 36 37 38 39 40 41 42 43 44 45 46 47 48 49 50
000
ASUS43 KMPX 271401
RWRMN
WEATHER ROUNDUP FOR MINNESOTA
NATIONAL WEATHER SERVICE TWIN CITIES/CHANHASSEN MN
800 AM CST TUE JAN 27 2015


NOTE: "FAIR" INDICATES FEW OR NO CLOUDS BELOW 12,000 FEET WITH NO
SIGNIFICANT WEATHER AND/OR OBSTRUCTIONS TO VISIBILITY. N/A MEANS
CURRENT SKY AND/OR WEATHER CONDITIONS ARE NOT AVAILABLE.

MNZ060>063-068>070-271500-
   Twin Cities Metro

CITY           SKY/WX    TMP DP  RH WIND       PRES   REMARKS
TWIN CITIES    CLOUDY    32  24  72 NE6       30.13R WCI  26
ST PAUL        CLOUDY    32  25  75 E5        30.15R WCI  27
CRYSTAL        CLOUDY    33  25  72 E3        30.13R
BLAINE         CLOUDY    34  28  80 E6        30.12S WCI  29
LAKEVILLE      CLOUDY    30  27  86 E3        30.13R
EDEN PRAIRIE   CLOUDY    33  25  72 CALM      30.12R
SOUTH ST PAUL  CLOUDY    32  26  76 CALM      30.13S
LAKE ELMO      CLOUDY    32  27  80 NE3       30.14R
$$
MNZ001>005-007-008-013>017-022>024-027-028-271500-
   Northwest Minnesota

CITY           SKY/WX    TMP DP  RH WIND       PRES   REMARKS
BEMIDJI        CLOUDY    24  24  97 S7        30.05F WCI  16
HALLOCK        CLOUDY    25  25 100 S8        30.04R FOG     WCI  16
ROSEAU         CLOUDY    23  18  80 S6        30.05R HAZE    WCI  16
WARROAD        CLOUDY    21  18  86 S6        30.05S FOG     WCI  14
THIEF RVR FALL CLOUDY    25  25 100 SE8       30.05R VSB 1/4 WCI  16
CROOKSTON      FOG       27  25  93 S10       30.06R VSB 1   WCI  17
FOSSTON        CLOUDY    21  21 100 SE9       30.04F WCI  11
DETROIT LAKES  FOG       28  27  93 SE10      30.07S VSB 1/2 WCI  19
MOORHEAD       CLOUDY    27  27 100 S9        30.09R FOG     WCI  17
PARK RAPIDS    CLOUDY    27  25  92 S8        30.07S WCI  19
MAHNOMEN       CLOUDY    24  23  96 S6        30.06S WCI  17
$$
MNZ006-009>011-018-025>026-271500-
   North Central Minnesota

CITY           SKY/WX    TMP DP  RH WIND       PRES   REMARKS
BAUDETTE       CLOUDY    23  21  92 S5        30.05S WCI  17
FLAG ISLAND    CLOUDY    21  21 100 S7        30.03S FOG     WCI  13
INTL FALLS     CLOUDY    22  20  92 SW3       30.07S
WASKISH        CLOUDY    25  23  93 S3        30.06F
BIG FORK       CLOUDY    27  23  86 S5        30.08S WCI  21
LONGVILLE      CLOUDY    27  25  93 SE7       30.09S WCI  19
GRAND RAPIDS   CLOUDY    25  19  80 S6        30.09R WCI  18
CRANE LAKE     CLOUDY    23  21  93 S5        30.11R WCI  17
ORR            CLOUDY    23  19  86 CALM      30.07R
COOK           CLOUDY    23  21  93 SW5       30.09R WCI  17
WALKER         CLOUDY    26  24  91 S6        30.07S WCI  19
$$
MNZ012-019>021-037-271500-
   Northeast Minnesota

CITY           SKY/WX    TMP DP  RH WIND       PRES   REMARKS
DULUTH         CLOUDY    25  21  85 SE5       30.10R WCI  19
ELY            CLOUDY    21  21 100 S3        30.08R
HIBBING        CLOUDY    25  21  85 SE3       30.09R
EVELETH        CLOUDY    25  23  93 CALM      30.10S
DULUTH HARBOR  CLOUDY    28  25  86 CALM      30.16R
TWO HARBORS    CLOUDY    27  21  80 CALM      30.10R
SILVER BAY     CLOUDY    25  21  86 CALM      30.10R
GRAND MARAIS     N/A     23  20  88 NW3       30.13R
G MARAIS ARPRT CLOUDY    16  12  86 CALM      30.06S
$$
MNZ029>031-032-039>041-046>048-054>057-064-271500-
   West Central Minnesota

CITY           SKY/WX    TMP DP  RH WIND       PRES   REMARKS
FERGUS FALLS   FOG       27  27 100 SE8       30.11S VSB 3/4 WCI  18
WHEATON        CLOUDY    27  27 100 SE7       30.11R FOG     WCI  19
MORRIS         CLOUDY    28  28 100 SE9       30.09R FOG     WCI  20
ALEXANDRIA     CLOUDY    28  26  92 SE9       30.09S WCI  19
ELBOW LAKE     FOG       27  26  99 S8        30.09R VSB 3/4 WCI  18
WADENA         CLOUDY    25  25 100 SE7       30.08S WCI  17
GLENWOOD       CLOUDY    28  28 100 SE7       30.10S WCI  21
APPLETON       CLOUDY    30  28  93 SE5       30.10S FOG     WCI  25
BENSON         CLOUDY    28  27  93 CALM      30.11R
ORTONVILLE     FOG       27  25  93 S5        30.10R VSB 1/4 WCI  21
MADISON        FOG       32  30  93 SE5       30.10R VSB 1/2 WCI  27
WILLMAR        CLOUDY    32  28  86 SE7       30.13R WCI  26
$$
MNZ033>034-036-042>043-049>051-058-059-271500-
   Central Minnesota

CITY           SKY/WX    TMP DP  RH WIND       PRES   REMARKS
ST CLOUD       CLOUDY    31  26  82 CALM      30.12R
SAUK CENTRE    CLOUDY    28  26  92 SE6       30.10S WCI  22
PAYNESVILLE    CLOUDY    28  26  93 CALM      30.11S
AITKIN         CLOUDY    30  25  80 CALM      30.10R
PINE RIVER     CLOUDY    28  25  86 SE5       30.12R WCI  23
BRAINERD       CLOUDY    29  24  82 SE6       30.10R WCI  23
STAPLES        CLOUDY    27  25  93 S5        30.10R WCI  21
LONG PRAIRIE   CLOUDY    28  27  93 SE5       30.09F WCI  23
LITTLE FALLS   CLOUDY    30  27  86 CALM      30.11S
LITCHFIELD     CLOUDY    32  30  93 CALM      30.12R
BUFFALO        CLOUDY    32  26  79 E3        30.14R
MAPLE LAKE     CLOUDY    32  28  85 CALM      30.13R
$$
MNZ037-044-045-052-053-271500-
   East Central Minnesota

CITY           SKY/WX    TMP DP  RH WIND       PRES   REMARKS
PRINCETON      CLOUDY    32  25  74 CALM      30.13R
MORA           CLOUDY    30  25  80 E5        30.14R WCI  25
CAMBRIDGE      CLOUDY    34  23  64 E5        30.11R WCI  30
RUSH CITY      CLOUDY    29  24  81 CALM      30.14R
MOOSE LAKE     CLOUDY    28  23  80 CALM      30.11R
HINCKLEY       CLOUDY    30  27  86 E3        30.13R
CLOQUET        CLOUDY    25  21  86 CALM      30.11R
MCGREGOR       CLOUDY    30  27  86 CALM      30.11R
$$
MNZ071>073-080-081-089-090-097-098-271500-
   Southwest Minnesota

CITY           SKY/WX    TMP DP  RH WIND       PRES   REMARKS
MONTEVIDEO     CLOUDY    28  28 100 S5        30.12R WCI  23
GRANITE FALLS  CLOUDY    29  28  96 SE5       30.13S WCI  24
CANBY          FOG       29  29  99 E7        30.11S VSB 1/4 WCI  22
MARSHALL       CLOUDY    28  25  86 CALM      30.13R VSB 1/2
REDWOOD FALLS  CLOUDY    31  28  89 E3        30.13R
OLIVIA         CLOUDY    30  28  93 SE6       30.12R WCI  24
PIPESTONE      FOG       28  28 100 SE6       30.07R VSB<1/4 WCI  22
WINDOM         CLOUDY    28  28 100 CALM      30.11R
WORTHINGTON    CLOUDY    28  27  93 E3        30.11R VSB<1/4
JACKSON        PTCLDY    30  28  93 NE3       30.11R
TRACY          FOG       29  29  99 CALM      30.11R VSB 1/2
SLAYTON        FOG       28  28  99 CALM      30.10R VSB 1/2
$$
MNZ065>067-074>077-082>085-091>093-271500-
   South Central Minnesota

CITY           SKY/WX    TMP DP  RH WIND       PRES   REMARKS
MANKATO        CLOUDY    34  27  75 NE5       30.13R WCI  30
NEW ULM        CLOUDY    32  27  80 E3        30.13R
ST JAMES       CLOUDY    32  30  93 CALM      30.14R
FAIRMONT       CLEAR     27  18  69 N3        30.12R
GLENCOE        CLOUDY    33  30  89 CALM      30.12R
FARIBAULT      CLOUDY    34  27  75 E5        30.13R WCI  30
OWATONNA       CLOUDY    34  27  75 NE3       30.13R
WASECA         CLOUDY    32  27  80 E6        30.13R WCI  26
ALBERT LEA     CLOUDY    34  28  80 NE6       30.11R WCI  29
$$
MNZ078>079-086>088-094>096-271500-
   Southeast Minnesota

CITY           SKY/WX    TMP DP  RH WIND       PRES   REMARKS
ROCHESTER      CLOUDY    30  24  78 NE8       30.12R WCI  22
RED WING       CLOUDY    32  25  74 CALM      30.13S
STANTON        CLOUDY    33  28  81 NE5       30.11S WCI  29
DODGE CENTER   CLOUDY    30  27  86 NE5       30.12R WCI  25
WINONA         CLOUDY    30  25  80 CALM      30.17R
AUSTIN         CLOUDY    32  27  80 CALM      30.11R
PRESTON        CLOUDY    29  26  91 E5        30.12R FOG     WCI  24
$$
ABBREVIATIONS USED IN REMARKS
   TC - TEMPERATURES IN CELSIUS
  WCI - WIND CHILL INDEX
   HX - HEAT INDEX
  VSB - VISIBILITY
$$


USA.gov is the U.S. government's official web portal to all federal, state and local government web resources and services.